| time (UTC) | temp C | wind direction | speed KPH | gust KPH | rain 1hr cm | rain 24hr cm | rain mn cm | humidity % | barometer mb |
| 20260509055529 | 18 | 355 | 1.6 | 6.4 | 0.00 | 0.00 | 0.00 | 70 | 1016.8 |
| 20260509055026 | 18 | 313 | 1.6 | 4.8 | 0.00 | 0.00 | 0.00 | 71 | 1016.7 |
| 20260509054529 | 18 | 350 | 3.2 | 4.8 | 0.00 | 0.00 | 0.00 | 71 | 1016.8 |
| 20260509054025 | 17 | 337 | 1.6 | 4.8 | 0.00 | 0.00 | 0.00 | 71 | 1016.8 |
| 20260509053525 | 17 | 330 | 3.2 | 4.8 | 0.00 | 0.00 | 0.00 | 70 | 1016.7 |
| 20260509053035 | 17 | 294 | 1.6 | 4.8 | 0.00 | 0.00 | 0.00 | 70 | 1016.7 |
| 20260509052525 | 17 | 182 | 1.6 | 4.8 | 0.00 | 0.00 | 0.00 | 71 | 1016.7 |
| 20260509052023 | 17 | 201 | 0.0 | 3.2 | 0.00 | 0.00 | 0.00 | 71 | 1016.8 |
| 20260509051534 | 17 | 250 | 0.0 | 3.2 | 0.00 | 0.00 | 0.00 | 69 | 1016.8 |
| 20260509051021 | 17 | 213 | 1.6 | 4.8 | 0.00 | 0.00 | 0.00 | 69 | 1016.9 |
| 20260509050520 | 17 | 211 | 0.0 | 4.8 | 0.00 | 0.00 | 0.00 | 69 | 1016.9 |
| 20260509050020 | 17 | 213 | 0.0 | 3.2 | 0.00 | 0.00 | 0.00 | 69 | 1017.0 |
| 20260509045519 | 17 | 255 | 0.0 | 3.2 | 0.00 | 0.00 | 0.00 | 70 | 1017.0 |
| 20260509045020 | 17 | 264 | 0.0 | 6.4 | 0.00 | 0.00 | 0.00 | 70 | 1017.0 |
| 20260509044518 | 17 | 269 | 0.0 | 6.4 | 0.00 | 0.00 | 0.00 | 70 | 1017.0 |
| 20260509044017 | 16 | 351 | 0.0 | 4.8 | 0.00 | 0.00 | 0.00 | 70 | 1017.0 |
| 20260509043519 | 16 | 355 | 1.6 | 4.8 | 0.00 | 0.00 | 0.00 | 70 | 1017.0 |
| 20260509043017 | 17 | 333 | 1.6 | 4.8 | 0.00 | 0.00 | 0.00 | 69 | 1016.9 |
| 20260509042517 | 17 | 107 | 0.0 | 3.2 | 0.00 | 0.00 | 0.00 | 69 | 1016.9 |
| 20260509042018 | 16 | 103 | 0.0 | 4.8 | 0.00 | 0.00 | 0.00 | 70 | 1016.9 |
| 20260509041517 | 16 | 96 | 0.0 | 6.4 | 0.00 | 0.00 | 0.00 | 70 | 1016.9 |
| 20260509041016 | 16 | 81 | 3.2 | 8.0 | 0.00 | 0.00 | 0.00 | 71 | 1016.9 |
| 20260509040516 | 16 | 46 | 3.2 | 8.0 | 0.00 | 0.00 | 0.00 | 72 | 1017.0 |
| 20260509040016 | 16 | 42 | 4.8 | 8.0 | 0.00 | 0.00 | 0.00 | 72 | 1017.0 |
| 20260509035515 | 16 | 340 | 0.0 | 4.8 | 0.00 | 0.00 | 0.00 | 71 | 1016.9 |
| 20260509035013 | 16 | 75 | 0.0 | 6.4 | 0.00 | 0.00 | 0.00 | 71 | 1016.6 |
| 20260509034512 | 16 | 71 | 0.0 | 6.4 | 0.00 | 0.00 | 0.00 | 70 | 1016.6 |
| 20260509034011 | 16 | 43 | 3.2 | 9.7 | 0.00 | 0.00 | 0.00 | 71 | 1016.6 |
| 20260509033509 | 16 | 71 | 4.8 | 9.7 | 0.00 | 0.00 | 0.00 | 72 | 1016.6 |
| 20260509033009 | 16 | 67 | 4.8 | 8.0 | 0.00 | 0.00 | 0.00 | 72 | 1016.7 |
| 20260509032509 | 16 | 15 | 1.6 | 6.4 | 0.00 | 0.00 | 0.00 | 72 | 1016.6 |
| 20260509032009 | 16 | 147 | 1.6 | 4.8 | 0.00 | 0.00 | 0.00 | 72 | 1016.6 |
| 20260509031507 | 16 | 91 | 1.6 | 9.7 | 0.00 | 0.00 | 0.00 | 73 | 1016.5 |
| 20260509031009 | 15 | 95 | 4.8 | 9.7 | 0.00 | 0.00 | 0.00 | 74 | 1016.6 |
| 20260509030507 | 15 | 81 | 4.8 | 9.7 | 0.00 | 0.00 | 0.00 | 75 | 1016.6 |
| 20260509030008 | 15 | 46 | 4.8 | 9.7 | 0.00 | 0.00 | 0.00 | 76 | 1016.7 |
| 20260509025508 | 15 | 34 | 4.8 | 9.7 | 0.00 | 0.00 | 0.00 | 74 | 1016.7 |
| 20260509025006 | 16 | 10 | 6.4 | 9.7 | 0.00 | 0.00 | 0.00 | 74 | 1016.6 |
| 20260509024506 | 16 | 92 | 1.6 | 6.4 | 0.00 | 0.00 | 0.00 | 74 | 1016.3 |
| 20260509024005 | 15 | 82 | 1.6 | 8.0 | 0.00 | 0.00 | 0.00 | 75 | 1016.5 |
| 20260509023506 | 15 | 71 | 1.6 | 14.5 | 0.00 | 0.00 | 0.00 | 76 | 1016.5 |
| 20260509023004 | 15 | 49 | 9.7 | 14.5 | 0.00 | 0.00 | 0.00 | 77 | 1016.4 |
| 20260509022503 | 15 | 355 | 6.4 | 12.9 | 0.00 | 0.00 | 0.00 | 77 | 1016.5 |
| 20260509022003 | 15 | 28 | 9.7 | 12.9 | 0.00 | 0.00 | 0.00 | 76 | 1016.5 |
| 20260509021502 | 15 | 55 | 1.6 | 9.7 | 0.00 | 0.00 | 0.00 | 77 | 1016.5 |
| 20260509021003 | 15 | 42 | 8.0 | 9.7 | 0.00 | 0.00 | 0.00 | 77 | 1016.7 |
| 20260509020601 | 15 | 34 | 4.8 | 9.7 | 0.00 | 0.00 | 0.00 | 76 | 1016.6 |
| 20260509020059 | 15 | 17 | 4.8 | 6.4 | 0.00 | 0.00 | 0.00 | 75 | 1016.6 |
| 20260509015559 | 16 | 40 | 1.6 | 4.8 | 0.00 | 0.00 | 0.00 | 75 | 1016.4 |
| 20260509015058 | 16 | 39 | 1.6 | 4.8 | 0.00 | 0.00 | 0.00 | 75 | 1016.6 |
| 20260509014556 | 16 | 54 | 0.0 | 6.4 | 0.00 | 0.00 | 0.00 | 75 | 1016.8 |
| 20260509014056 | 16 | 45 | 3.2 | 6.4 | 0.00 | 0.00 | 0.00 | 74 | 1016.8 |
| 20260509013557 | 16 | 49 | 1.6 | 6.4 | 0.00 | 0.00 | 0.00 | 73 | 1016.8 |
| 20260509013156 | 16 | 63 | 1.6 | 8.0 | 0.00 | 0.00 | 0.00 | 74 | 1017.0 |
| 20260509012554 | 16 | 67 | 4.8 | 9.7 | 0.00 | 0.00 | 0.00 | 74 | 1017.0 |
| 20260509012054 | 16 | 78 | 3.2 | 6.4 | 0.00 | 0.00 | 0.00 | 75 | 1017.2 |
| 20260509011553 | 16 | 72 | 4.8 | 8.0 | 0.00 | 0.00 | 0.00 | 75 | 1017.3 |
| 20260509011053 | 16 | 56 | 4.8 | 8.0 | 0.00 | 0.00 | 0.00 | 76 | 1017.3 |
| 20260509010556 | 16 | 44 | 3.2 | 6.4 | 0.00 | 0.00 | 0.00 | 76 | 1017.5 |
| 20260509010051 | 16 | 44 | 3.2 | 6.4 | 0.00 | 0.00 | 0.00 | 75 | 1017.5 |
| 20260509005550 | 16 | 52 | 0.0 | 4.8 | 0.00 | 0.00 | 0.00 | 74 | 1017.6 |
| 20260509005049 | 16 | 61 | 0.0 | 0.0 | 0.00 | 0.00 | 0.00 | 74 | 1017.6 |
| 20260509004547 | 16 | 60 | 0.0 | 3.2 | 0.00 | 0.00 | 0.00 | 74 | 1017.6 |
| 20260509004046 | 16 | 59 | 0.0 | 4.8 | 0.00 | 0.00 | 0.00 | 73 | 1017.6 |
| 20260509003546 | 16 | 59 | 1.6 | 4.8 | 0.00 | 0.00 | 0.00 | 73 | 1017.7 |
| 20260509003046 | 17 | 60 | 0.0 | 6.4 | 0.00 | 0.00 | 0.00 | 73 | 1017.8 |
| 20260509002545 | 17 | 63 | 1.6 | 6.4 | 0.00 | 0.00 | 0.00 | 73 | 1017.7 |
| 20260509002044 | 17 | 51 | 0.0 | 1.6 | 0.00 | 0.00 | 0.00 | 73 | 1017.9 |
| 20260509001545 | 16 | 48 | 0.0 | 1.6 | 0.00 | 0.00 | 0.00 | 73 | 1018.1 |
| 20260509001042 | 16 | 48 | 0.0 | 4.8 | 0.00 | 0.00 | 0.00 | 74 | 1018.2 |
| 20260509000546 | 16 | 48 | 1.6 | 6.4 | 0.00 | 0.00 | 0.00 | 74 | 1018.0 |
| 20260509000041 | 17 | 45 | 3.2 | 6.4 | 0.00 | 0.00 | 0.00 | 73 | 1018.2 |
| 20260508235539 | 17 | 49 | 3.2 | 6.4 | 0.00 | 0.00 | 0.00 | 72 | 1018.1 |
| 20260508235041 | 17 | 64 | 0.0 | 0.0 | 0.00 | 0.00 | 0.00 | 71 | 1018.1 |
| 20260508234538 | 17 | 67 | 0.0 | 0.0 | 0.00 | 0.00 | 0.00 | 71 | 1018.1 |
| 20260508234041 | 17 | 59 | 0.0 | 0.0 | 0.00 | 0.00 | 0.00 | 71 | 1018.2 |
| 20260508233537 | 17 | 59 | 0.0 | 0.0 | 0.00 | 0.00 | 0.00 | 71 | 1018.2 |
| 20260508233047 | 17 | 58 | 0.0 | 0.0 | 0.00 | 0.00 | 0.00 | 71 | 1018.3 |
| 20260508232535 | 17 | 57 | 0.0 | 0.0 | 0.00 | 0.00 | 0.00 | 70 | 1018.5 |
| 20260508232034 | 17 | 57 | 0.0 | 1.6 | 0.00 | 0.00 | 0.00 | 70 | 1018.6 |
| 20260508231537 | 17 | 57 | 0.0 | 6.4 | 0.00 | 0.00 | 0.00 | 70 | 1018.5 |
| 20260508231036 | 17 | 55 | 0.0 | 9.7 | 0.00 | 0.00 | 0.00 | 70 | 1018.6 |
| 20260508230533 | 18 | 37 | 4.8 | 9.7 | 0.00 | 0.00 | 0.00 | 69 | 1018.7 |
| 20260508230032 | 18 | 259 | 1.6 | 6.4 | 0.00 | 0.00 | 0.00 | 69 | 1018.7 |
| 20260508225533 | 18 | 259 | 1.6 | 6.4 | 0.00 | 0.00 | 0.00 | 69 | 1018.7 |
| 20260508225031 | 18 | 245 | 4.8 | 8.0 | 0.00 | 0.00 | 0.00 | 68 | 1018.7 |
| 20260508224530 | 18 | 241 | 4.8 | 8.0 | 0.00 | 0.00 | 0.00 | 69 | 1018.7 |
| 20260508224030 | 18 | 242 | 4.8 | 6.4 | 0.00 | 0.00 | 0.00 | 68 | 1018.7 |
| 20260508223529 | 18 | 246 | 3.2 | 6.4 | 0.00 | 0.00 | 0.00 | 68 | 1018.7 |
| 20260508223029 | 18 | 315 | 3.2 | 6.4 | 0.00 | 0.00 | 0.00 | 68 | 1018.8 |
| 20260508222529 | 18 | 329 | 3.2 | 6.4 | 0.00 | 0.00 | 0.00 | 67 | 1018.8 |
| 20260508222028 | 18 | 316 | 4.8 | 6.4 | 0.00 | 0.00 | 0.00 | 67 | 1018.9 |
| 20260508221527 | 18 | 267 | 3.2 | 9.7 | 0.00 | 0.00 | 0.00 | 66 | 1018.8 |
| 20260508221029 | 18 | 237 | 4.8 | 9.7 | 0.00 | 0.00 | 0.00 | 65 | 1018.7 |
| 20260508220528 | 18 | 261 | 6.4 | 9.7 | 0.00 | 0.00 | 0.00 | 65 | 1018.8 |
| 20260508220026 | 18 | 252 | 6.4 | 8.0 | 0.00 | 0.00 | 0.00 | 65 | 1018.9 |
| 20260508215525 | 18 | 254 | 3.2 | 6.4 | 0.00 | 0.00 | 0.00 | 64 | 1018.9 |
| 20260508215024 | 18 | 306 | 3.2 | 8.0 | 0.00 | 0.00 | 0.00 | 65 | 1018.9 |
| 20260508214527 | 18 | 303 | 3.2 | 6.4 | 0.00 | 0.00 | 0.00 | 63 | 1018.9 |
| 20260508214024 | 18 | 261 | 3.2 | 9.7 | 0.00 | 0.00 | 0.00 | 63 | 1018.8 |
| 20260508213523 | 18 | 263 | 3.2 | 12.9 | 0.00 | 0.00 | 0.00 | 63 | 1018.9 |
| 20260508213023 | 18 | 271 | 4.8 | 12.9 | 0.00 | 0.00 | 0.00 | 63 | 1018.9 |
| 20260508212522 | 18 | 249 | 6.4 | 11.3 | 0.00 | 0.00 | 0.00 | 62 | 1019.0 |
| 20260508212023 | 18 | 258 | 4.8 | 11.3 | 0.00 | 0.00 | 0.00 | 62 | 1018.9 |
| 20260508211529 | 18 | 276 | 4.8 | 11.3 | 0.00 | 0.00 | 0.00 | 61 | 1019.0 |
| 20260508211028 | 19 | 253 | 4.8 | 12.9 | 0.00 | 0.00 | 0.00 | 61 | 1018.9 |
| 20260508210519 | 19 | 253 | 4.8 | 16.1 | 0.00 | 0.00 | 0.00 | 60 | 1018.7 |
| 20260508210018 | 19 | 212 | 8.0 | 12.9 | 0.00 | 0.00 | 0.00 | 60 | 1018.6 |
| 20260508205517 | 19 | 215 | 6.4 | 14.5 | 0.00 | 0.00 | 0.00 | 60 | 1018.8 |
| 20260508205019 | 19 | 247 | 4.8 | 14.5 | 0.00 | 0.00 | 0.00 | 59 | 1018.9 |
| 20260508204517 | 19 | 255 | 9.7 | 14.5 | 0.00 | 0.00 | 0.00 | 58 | 1019.1 |
| 20260508204016 | 19 | 250 | 8.0 | 14.5 | 0.00 | 0.00 | 0.00 | 57 | 1019.0 |
| 20260508203516 | 19 | 240 | 8.0 | 14.5 | 0.00 | 0.00 | 0.00 | 57 | 1018.9 |
| 20260508203017 | 19 | 265 | 9.7 | 14.5 | 0.00 | 0.00 | 0.00 | 56 | 1019.0 |
| 20260508202516 | 19 | 225 | 8.0 | 12.9 | 0.00 | 0.00 | 0.00 | 56 | 1018.9 |
| 20260508202016 | 19 | 259 | 3.2 | 8.0 | 0.00 | 0.00 | 0.00 | 56 | 1019.0 |
| 20260508201516 | 19 | 341 | 3.2 | 9.7 | 0.00 | 0.00 | 0.00 | 57 | 1019.0 |
| 20260508201016 | 19 | 10 | 6.4 | 9.7 | 0.00 | 0.00 | 0.00 | 56 | 1018.9 |
| 20260508200516 | 20 | 313 | 0.0 | 6.4 | 0.00 | 0.00 | 0.00 | 55 | 1018.6 |
| 20260508200016 | 20 | 292 | 1.6 | 11.3 | 0.00 | 0.00 | 0.00 | 55 | 1018.5 |
| 20260508195515 | 20 | 315 | 4.8 | 11.3 | 0.00 | 0.00 | 0.00 | 54 | 1018.4 |
| 20260508195018 | 20 | 240 | 6.4 | 11.3 | 0.00 | 0.00 | 0.00 | 53 | 1018.2 |
| 20260508194516 | 20 | 242 | 8.0 | 12.9 | 0.00 | 0.00 | 0.00 | 53 | 1018.3 |
| 20260508194016 | 20 | 227 | 8.0 | 12.9 | 0.00 | 0.00 | 0.00 | 54 | 1018.3 |
| 20260508193514 | 20 | 219 | 6.4 | 12.9 | 0.00 | 0.00 | 0.00 | 54 | 1018.3 |
| 20260508193014 | 20 | 267 | 9.7 | 12.9 | 0.00 | 0.00 | 0.00 | 54 | 1018.5 |
| 20260508192514 | 20 | 268 | 6.4 | 12.9 | 0.00 | 0.00 | 0.00 | 55 | 1018.4 |
| 20260508192014 | 20 | 296 | 4.8 | 11.3 | 0.00 | 0.00 | 0.00 | 57 | 1018.3 |
| 20260508191519 | 20 | 257 | 6.4 | 11.3 | 0.00 | 0.00 | 0.00 | 57 | 1018.1 |
| 20260508191013 | 20 | 254 | 3.2 | 9.7 | 0.00 | 0.00 | 0.00 | 58 | 1018.2 |
| 20260508190515 | 20 | 267 | 4.8 | 9.7 | 0.00 | 0.00 | 0.00 | 59 | 1018.1 |
| 20260508190018 | 20 | 260 | 6.4 | 9.7 | 0.00 | 0.00 | 0.00 | 59 | 1018.3 |
| 20260508185513 | 20 | 281 | 3.2 | 4.8 | 0.00 | 0.00 | 0.00 | 59 | 1018.1 |
| 20260508185012 | 20 | 311 | 1.6 | 6.4 | 0.00 | 0.00 | 0.00 | 59 | 1017.9 |
| 20260508184513 | 20 | 320 | 3.2 | 6.4 | 0.00 | 0.00 | 0.00 | 58 | 1017.9 |
| 20260508184011 | 20 | 10 | 1.6 | 6.4 | 0.00 | 0.00 | 0.00 | 59 | 1017.7 |
| 20260508183511 | 20 | 136 | 1.6 | 4.8 | 0.00 | 0.00 | 0.00 | 59 | 1017.6 |
| 20260508183012 | 20 | 148 | 1.6 | 4.8 | 0.00 | 0.00 | 0.00 | 60 | 1017.6 |
| 20260508182515 | 19 | 67 | 1.6 | 4.8 | 0.00 | 0.00 | 0.00 | 60 | 1017.5 |
| 20260508182011 | 20 | 27 | 0.0 | 6.4 | 0.00 | 0.00 | 0.00 | 59 | 1017.5 |
| 20260508181511 | 20 | 345 | 3.2 | 12.9 | 0.00 | 0.00 | 0.00 | 59 | 1017.7 |
| 20260508181011 | 20 | 349 | 6.4 | 12.9 | 0.00 | 0.00 | 0.00 | 59 | 1017.7 |
| 20260508180512 | 20 | 311 | 8.0 | 12.9 | 0.00 | 0.00 | 0.00 | 59 | 1017.5 |
| 20260508180011 | 19 | 316 | 3.2 | 9.7 | 0.00 | 0.00 | 0.00 | 59 | 1017.3 |
| 20260508175511 | 19 | 271 | 4.8 | 9.7 | 0.00 | 0.00 | 0.00 | 59 | 1017.0 |
| 20260508175010 | 19 | 262 | 3.2 | 11.3 | 0.00 | 0.00 | 0.00 | 59 | 1017.0 |
| 20260508174510 | 20 | 313 | 4.8 | 14.5 | 0.00 | 0.00 | 0.00 | 59 | 1017.1 |
| 20260508174010 | 20 | 280 | 4.8 | 16.1 | 0.00 | 0.00 | 0.00 | 59 | 1016.9 |
| 20260508173510 | 20 | 288 | 8.0 | 16.1 | 0.00 | 0.00 | 0.00 | 58 | 1016.8 |
| 20260508173010 | 20 | 282 | 8.0 | 14.5 | 0.00 | 0.00 | 0.00 | 58 | 1016.7 |
| 20260508172510 | 20 | 270 | 9.7 | 16.1 | 0.00 | 0.00 | 0.00 | 57 | 1016.7 |
| 20260508172010 | 20 | 246 | 9.7 | 16.1 | 0.00 | 0.00 | 0.00 | 56 | 1016.5 |
| 20260508171522 | 20 | 259 | 9.7 | 17.7 | 0.00 | 0.00 | 0.00 | 56 | 1016.6 |
| 20260508171010 | 20 | 248 | 12.9 | 22.5 | 0.00 | 0.00 | 0.00 | 55 | 1016.7 |
| 20260508170510 | 20 | 232 | 14.5 | 20.9 | 0.00 | 0.00 | 0.00 | 54 | 1016.8 |
| 20260508170009 | 20 | 226 | 12.9 | 19.3 | 0.00 | 0.00 | 0.00 | 54 | 1016.9 |
| 20260508165509 | 20 | 228 | 11.3 | 17.7 | 0.00 | 0.00 | 0.00 | 54 | 1016.9 |
| 20260508165008 | 20 | 259 | 9.7 | 14.5 | 0.00 | 0.00 | 0.00 | 54 | 1016.8 |
| 20260508164508 | 20 | 232 | 8.0 | 16.1 | 0.00 | 0.00 | 0.00 | 54 | 1016.9 |
| 20260508164008 | 20 | 255 | 11.3 | 17.7 | 0.00 | 0.00 | 0.00 | 53 | 1016.8 |
| 20260508163507 | 20 | 261 | 12.9 | 20.9 | 0.00 | 0.00 | 0.00 | 53 | 1016.9 |
| 20260508163007 | 21 | 259 | 14.5 | 20.9 | 0.00 | 0.00 | 0.00 | 52 | 1016.9 |
| 20260508162507 | 21 | 232 | 14.5 | 20.9 | 0.00 | 0.00 | 0.00 | 51 | 1016.7 |
| 20260508162007 | 21 | 240 | 11.3 | 17.7 | 0.00 | 0.00 | 0.00 | 52 | 1016.7 |
| 20260508161507 | 21 | 263 | 11.3 | 17.7 | 0.00 | 0.00 | 0.00 | 52 | 1016.7 |
| 20260508161008 | 21 | 263 | 12.9 | 24.1 | 0.00 | 0.00 | 0.00 | 51 | 1016.7 |
| 20260508160506 | 21 | 229 | 9.7 | 24.1 | 0.00 | 0.00 | 0.00 | 51 | 1016.6 |
| 20260508160012 | 21 | 209 | 12.9 | 20.9 | 0.00 | 0.00 | 0.00 | 51 | 1016.5 |
| 20260508155510 | 21 | 218 | 16.1 | 24.1 | 0.00 | 0.00 | 0.00 | 51 | 1016.7 |
| 20260508155007 | 21 | 221 | 12.9 | 22.5 | 0.00 | 0.00 | 0.00 | 51 | 1016.5 |
| 20260508154506 | 21 | 260 | 16.1 | 22.5 | 0.00 | 0.00 | 0.00 | 50 | 1016.6 |
| 20260508154006 | 21 | 200 | 14.5 | 20.9 | 0.00 | 0.00 | 0.00 | 50 | 1016.7 |
| 20260508153505 | 21 | 227 | 9.7 | 20.9 | 0.00 | 0.00 | 0.00 | 50 | 1016.7 |
| 20260508153005 | 21 | 256 | 16.1 | 24.1 | 0.00 | 0.00 | 0.00 | 51 | 1016.7 |
| 20260508152506 | 21 | 273 | 19.3 | 24.1 | 0.00 | 0.00 | 0.00 | 51 | 1016.7 |
| 20260508152103 | 21 | 267 | 17.7 | 22.5 | 0.00 | 0.00 | 0.00 | 51 | 1016.7 |
| 20260508151503 | 21 | 232 | 11.3 | 24.1 | 0.00 | 0.00 | 0.00 | 50 | 1016.8 |
| 20260508151004 | 21 | 263 | 17.7 | 24.1 | 0.00 | 0.00 | 0.00 | 50 | 1016.7 |
| 20260508150506 | 21 | 240 | 14.5 | 22.5 | 0.00 | 0.00 | 0.00 | 51 | 1016.7 |
| 20260508150003 | 21 | 239 | 12.9 | 22.5 | 0.00 | 0.00 | 0.00 | 50 | 1016.6 |
| 20260508145502 | 21 | 241 | 19.3 | 22.5 | 0.00 | 0.00 | 0.00 | 50 | 1016.5 |
| 20260508145001 | 22 | 233 | 16.1 | 29.0 | 0.00 | 0.00 | 0.00 | 50 | 1016.6 |
| 20260508144605 | 22 | 228 | 12.9 | 29.0 | 0.00 | 0.00 | 0.00 | 51 | 1016.5 |
| 20260508144100 | 22 | 265 | 14.5 | 22.5 | 0.00 | 0.00 | 0.00 | 50 | 1016.5 |
| 20260508143559 | 22 | 226 | 14.5 | 30.6 | 0.00 | 0.00 | 0.00 | 52 | 1016.5 |
| 20260508143101 | 22 | 224 | 17.7 | 30.6 | 0.00 | 0.00 | 0.00 | 52 | 1016.6 |
| 20260508142558 | 22 | 200 | 16.1 | 22.5 | 0.00 | 0.00 | 0.00 | 51 | 1016.5 |
| 20260508142100 | 22 | 227 | 16.1 | 22.5 | 0.00 | 0.00 | 0.00 | 51 | 1016.6 |
| 20260508141558 | 22 | 197 | 14.5 | 24.1 | 0.00 | 0.00 | 0.00 | 50 | 1016.6 |
| 20260508141056 | 22 | 240 | 14.5 | 25.7 | 0.00 | 0.00 | 0.00 | 48 | 1016.6 |
| 20260508140555 | 22 | 213 | 12.9 | 25.7 | 0.00 | 0.00 | 0.00 | 48 | 1016.7 |
| 20260508140103 | 22 | 273 | 17.7 | 24.1 | 0.00 | 0.00 | 0.00 | 49 | 1016.7 |
| 20260508135555 | 22 | 286 | 8.0 | 24.1 | 0.00 | 0.00 | 0.00 | 49 | 1016.7 |
| 20260508135054 | 22 | 254 | 16.1 | 24.1 | 0.00 | 0.00 | 0.00 | 47 | 1016.8 |
| 20260508134555 | 22 | 181 | 11.3 | 17.7 | 0.00 | 0.00 | 0.00 | 46 | 1016.8 |
| 20260508134052 | 22 | 211 | 9.7 | 24.1 | 0.00 | 0.00 | 0.00 | 49 | 1016.9 |
| 20260508133554 | 22 | 247 | 16.1 | 24.1 | 0.00 | 0.00 | 0.00 | 50 | 1017.0 |
| 20260508133056 | 22 | 246 | 11.3 | 27.4 | 0.00 | 0.00 | 0.00 | 49 | 1017.1 |
| 20260508132549 | 22 | 228 | 11.3 | 20.9 | 0.00 | 0.00 | 0.00 | 49 | 1017.1 |
| 20260508132048 | 22 | 266 | 17.7 | 20.9 | 0.00 | 0.00 | 0.00 | 47 | 1017.1 |
| 20260508131550 | 22 | 183 | 11.3 | 22.5 | 0.00 | 0.00 | 0.00 | 49 | 1017.2 |
| 20260508131047 | 22 | 202 | 14.5 | 25.7 | 0.00 | 0.00 | 0.00 | 48 | 1017.3 |
| 20260508130546 | 21 | 200 | 16.1 | 25.7 | 0.00 | 0.00 | 0.00 | 48 | 1017.4 |
| 20260508125648 | 22 | 273 | 12.9 | 25.7 | 0.00 | 0.00 | 0.00 | 47 | 1017.4 |
| 20260508125043 | 22 | 261 | 11.3 | 20.9 | 0.00 | 0.00 | 0.00 | 46 | 1017.5 |
| 20260508124549 | 21 | 208 | 11.3 | 24.1 | 0.00 | 0.00 | 0.00 | 46 | 1017.6 |
| 20260508124046 | 21 | 197 | 12.9 | 24.1 | 0.00 | 0.00 | 0.00 | 46 | 1017.7 |
| 20260508123542 | 21 | 198 | 14.5 | 30.6 | 0.00 | 0.00 | 0.00 | 46 | 1017.8 |
| 20260508123052 | 21 | 215 | 16.1 | 30.6 | 0.00 | 0.00 | 0.00 | 45 | 1017.9 |
| 20260508122541 | 22 | 219 | 16.1 | 29.0 | 0.00 | 0.00 | 0.00 | 45 | 1018.1 |
| 20260508122041 | 22 | 235 | 19.3 | 27.4 | 0.00 | 0.00 | 0.00 | 45 | 1018.1 |
| 20260508121544 | 22 | 215 | 16.1 | 27.4 | 0.00 | 0.00 | 0.00 | 45 | 1018.1 |
| 20260508121039 | 22 | 200 | 16.1 | 24.1 | 0.00 | 0.00 | 0.00 | 44 | 1018.2 |
| 20260508120539 | 22 | 248 | 9.7 | 22.5 | 0.00 | 0.00 | 0.00 | 45 | 1018.3 |
| 20260508120038 | 22 | 204 | 14.5 | 30.6 | 0.00 | 0.00 | 0.00 | 46 | 1018.2 |
| 20260508115537 | 21 | 211 | 16.1 | 30.6 | 0.00 | 0.00 | 0.00 | 45 | 1018.2 |
| 20260508115036 | 22 | 202 | 12.9 | 25.7 | 0.00 | 0.00 | 0.00 | 46 | 1018.3 |
| 20260508114545 | 22 | 234 | 14.5 | 25.7 | 0.00 | 0.00 | 0.00 | 45 | 1018.3 |
| 20260508114034 | 22 | 219 | 12.9 | 24.1 | 0.00 | 0.00 | 0.00 | 46 | 1018.0 |
| 20260508113533 | 21 | 221 | 8.0 | 12.9 | 0.00 | 0.00 | 0.00 | 51 | 1018.2 |
| 20260508113033 | 21 | 205 | 1.6 | 9.7 | 0.00 | 0.00 | 0.00 | 50 | 1018.1 |
| 20260508112531 | 21 | 130 | 3.2 | 11.3 | 0.00 | 0.00 | 0.00 | 50 | 1017.8 |
| 20260508112032 | 21 | 290 | 4.8 | 11.3 | 0.00 | 0.00 | 0.00 | 50 | 1018.7 |
| 20260508111531 | 21 | 285 | 1.6 | 6.4 | 0.00 | 0.00 | 0.00 | 51 | 1018.6 |
| 20260508111030 | 21 | 283 | 3.2 | 8.0 | 0.00 | 0.00 | 0.00 | 52 | 1018.6 |
| 20260508110531 | 20 | 304 | 4.8 | 11.3 | 0.00 | 0.00 | 0.00 | 52 | 1018.7 |
| 20260508110034 | 20 | 304 | 6.4 | 11.3 | 0.00 | 0.00 | 0.00 | 53 | 1019.0 |
| 20260508105529 | 20 | 257 | 4.8 | 9.7 | 0.00 | 0.00 | 0.00 | 53 | 1018.9 |
| 20260508105032 | 20 | 260 | 4.8 | 11.3 | 0.00 | 0.00 | 0.00 | 54 | 1019.1 |
| 20260508104529 | 20 | 263 | 6.4 | 11.3 | 0.00 | 0.00 | 0.00 | 53 | 1019.2 |
| 20260508104028 | 20 | 240 | 3.2 | 12.9 | 0.00 | 0.00 | 0.00 | 54 | 1019.2 |
| 20260508103528 | 20 | 254 | 8.0 | 14.5 | 0.00 | 0.00 | 0.00 | 54 | 1019.4 |
| 20260508103037 | 20 | 269 | 11.3 | 14.5 | 0.00 | 0.00 | 0.00 | 54 | 1019.5 |
| 20260508102528 | 20 | 252 | 9.7 | 14.5 | 0.00 | 0.00 | 0.00 | 54 | 1019.5 |
| 20260508102028 | 20 | 254 | 6.4 | 11.3 | 0.00 | 0.00 | 0.00 | 55 | 1019.4 |
| 20260508101526 | 20 | 232 | 4.8 | 12.9 | 0.00 | 0.00 | 0.00 | 55 | 1019.3 |
| 20260508101025 | 20 | 208 | 6.4 | 11.3 | 0.00 | 0.00 | 0.00 | 55 | 1019.3 |
| 20260508100525 | 20 | 204 | 6.4 | 16.1 | 0.00 | 0.00 | 0.00 | 55 | 1019.3 |
| 20260508100024 | 20 | 261 | 8.0 | 16.1 | 0.00 | 0.00 | 0.00 | 56 | 1019.5 |
| 20260508095524 | 20 | 219 | 6.4 | 14.5 | 0.00 | 0.00 | 0.00 | 57 | 1019.6 |
| 20260508095027 | 20 | 268 | 11.3 | 16.1 | 0.00 | 0.00 | 0.00 | 57 | 1019.6 |
| 20260508094539 | 20 | 246 | 11.3 | 16.1 | 0.00 | 0.00 | 0.00 | 57 | 1019.8 |
| 20260508094023 | 20 | 259 | 8.0 | 16.1 | 0.00 | 0.00 | 0.00 | 57 | 1020.0 |
| 20260508093523 | 20 | 237 | 9.7 | 16.1 | 0.00 | 0.00 | 0.00 | 56 | 1020.0 |
| 20260508093026 | 20 | 288 | 11.3 | 14.5 | 0.00 | 0.00 | 0.00 | 55 | 1020.1 |
| 20260508092522 | 20 | 253 | 11.3 | 14.5 | 0.00 | 0.00 | 0.00 | 55 | 1020.0 |
| 20260508092021 | 20 | 263 | 8.0 | 16.1 | 0.00 | 0.00 | 0.00 | 55 | 1020.0 |
| 20260508091539 | 20 | 243 | 11.3 | 16.1 | 0.00 | 0.00 | 0.00 | 55 | 1020.1 |
| 20260508091021 | 20 | 248 | 8.0 | 19.3 | 0.00 | 0.00 | 0.00 | 55 | 1020.1 |
| 20260508090521 | 20 | 227 | 9.7 | 19.3 | 0.00 | 0.00 | 0.00 | 56 | 1020.1 |
| 20260508090020 | 20 | 229 | 12.9 | 19.3 | 0.00 | 0.00 | 0.00 | 56 | 1020.3 |
| 20260508085522 | 19 | 221 | 8.0 | 16.1 | 0.00 | 0.00 | 0.00 | 59 | 1020.3 |
| 20260508085019 | 19 | 261 | 9.7 | 14.5 | 0.00 | 0.00 | 0.00 | 59 | 1020.3 |
| 20260508084516 | 19 | 256 | 4.8 | 12.9 | 0.00 | 0.00 | 0.00 | 61 | 1020.3 |
| 20260508084016 | 19 | 257 | 8.0 | 12.9 | 0.00 | 0.00 | 0.00 | 60 | 1020.3 |
| 20260508083516 | 19 | 246 | 6.4 | 12.9 | 0.00 | 0.00 | 0.00 | 60 | 1020.4 |
| 20260508083016 | 19 | 277 | 6.4 | 11.3 | 0.00 | 0.00 | 0.00 | 60 | 1020.4 |
| 20260508082519 | 19 | 273 | 6.4 | 11.3 | 0.00 | 0.00 | 0.00 | 60 | 1020.4 |
| 20260508082015 | 19 | 216 | 4.8 | 12.9 | 0.00 | 0.00 | 0.00 | 58 | 1020.3 |
| 20260508081526 | 19 | 218 | 6.4 | 16.1 | 0.00 | 0.00 | 0.00 | 58 | 1020.4 |
| 20260508081017 | 19 | 254 | 8.0 | 16.1 | 0.00 | 0.00 | 0.00 | 57 | 1020.5 |
| 20260508080514 | 19 | 276 | 8.0 | 14.5 | 0.00 | 0.00 | 0.00 | 56 | 1020.4 |
| 20260508080014 | 19 | 253 | 8.0 | 20.9 | 0.00 | 0.00 | 0.00 | 54 | 1020.5 |
| 20260508075514 | 19 | 258 | 12.9 | 20.9 | 0.00 | 0.00 | 0.00 | 55 | 1020.5 |
| 20260508075013 | 19 | 270 | 11.3 | 19.3 | 0.00 | 0.00 | 0.00 | 54 | 1020.5 |
| 20260508074513 | 19 | 265 | 14.5 | 19.3 | 0.00 | 0.00 | 0.00 | 53 | 1020.6 |
| 20260508074013 | 20 | 264 | 9.7 | 14.5 | 0.00 | 0.00 | 0.00 | 52 | 1020.5 |
| 20260508073511 | 20 | 211 | 8.0 | 14.5 | 0.00 | 0.00 | 0.00 | 50 | 1020.6 |
| 20260508073010 | 20 | 213 | 4.8 | 12.9 | 0.00 | 0.00 | 0.00 | 50 | 1020.6 |
| 20260508072508 | 19 | 246 | 6.4 | 12.9 | 0.00 | 0.00 | 0.00 | 50 | 1020.8 |
| 20260508072007 | 19 | 201 | 6.4 | 14.5 | 0.00 | 0.00 | 0.00 | 49 | 1021.0 |
| 20260508071517 | 19 | 248 | 8.0 | 14.5 | 0.00 | 0.00 | 0.00 | 48 | 1021.1 |
| 20260508071004 | 19 | 234 | 9.7 | 12.9 | 0.00 | 0.00 | 0.00 | 47 | 1021.1 |
| 20260508070504 | 19 | 219 | 8.0 | 14.5 | 0.00 | 0.00 | 0.00 | 46 | 1021.2 |
| 20260508070004 | 19 | 242 | 9.7 | 16.1 | 0.00 | 0.00 | 0.00 | 46 | 1021.2 |
| 20260508065505 | 19 | 249 | 9.7 | 17.7 | 0.00 | 0.00 | 0.00 | 47 | 1021.4 |
| 20260508065002 | 19 | 261 | 9.7 | 16.1 | 0.00 | 0.00 | 0.00 | 47 | 1021.3 |
| 20260508064505 | 19 | 265 | 11.3 | 16.1 | 0.00 | 0.00 | 0.00 | 47 | 1021.2 |
| 20260508064100 | 19 | 232 | 8.0 | 14.5 | 0.00 | 0.00 | 0.00 | 47 | 1021.1 |
| 20260508063559 | 19 | 265 | 8.0 | 14.5 | 0.00 | 0.00 | 0.00 | 46 | 1021.0 |
| 20260508063058 | 19 | 243 | 8.0 | 16.1 | 0.00 | 0.00 | 0.00 | 46 | 1020.9 |
| 20260508062557 | 19 | 244 | 11.3 | 16.1 | 0.00 | 0.00 | 0.00 | 47 | 1020.9 |
| 20260508062056 | 19 | 242 | 9.7 | 14.5 | 0.00 | 0.00 | 0.00 | 48 | 1020.8 |
| 20260508061557 | 19 | 273 | 8.0 | 12.9 | 0.00 | 0.00 | 0.00 | 50 | 1020.8 |
| 20260508061056 | 19 | 257 | 8.0 | 12.9 | 0.00 | 0.00 | 0.00 | 50 | 1020.7 |
| 20260508060555 | 19 | 280 | 8.0 | 12.9 | 0.00 | 0.00 | 0.00 | 50 | 1020.6 |
| 20260508060054 | 19 | 271 | 8.0 | 12.9 | 0.00 | 0.00 | 0.00 | 52 | 1020.5 |